Weather History for Coffeyville, KS

Change the Weather History Date:

Tuesday, October 8, 2013

  Actual Average Record
Temperature  
Mean Temperature 60 °F -  
Max Temperature 75 °F 72 °F 86 °F (2010)
Min Temperature 46 °F 48 °F 26 °F (2000)
Degree Days  
Heating Degree Days 4    
Growing Degree Days 10 (Base 50)    
Moisture  
Dew Point 47 °F    
Average Humidity 69    
Maximum Humidity 93    
Minimum Humidity 37    
Precipitation  
Precipitation 0.00 in - - ()
Sea Level Pressure  
Sea Level Pressure 30.09 in    
Wind  
Wind Speed 4 mph (SSE)    
Max Wind Speed 14 mph    
Max Gust Speed 21 mph    
Visibility 10 miles    
Events      
Averages and records for this station are not official NWS values.
T = Trace of Precipitation, MM = Missing Value Source: NWS Daily Summary

Daily Weather History Graph

Daily Weather History Graph

Search for Another Location

Airport:

Trip Planner

Search our weather history database for the weather conditions in past years. The results will help you decide how hot, cold, wet, or windy it might be!

Date:

Astronomy

Oct. 08, 2013 Rise Set
Actual Time 7:23 AM CDT 6:54 PM CDT
Civil Twilight 6:57 AM CDT 7:20 PM CDT
Nautical Twilight 6:27 AM CDT 7:50 PM CDT
Astronomical Twilight 5:57 AM CDT 8:21 PM CDT
Moon 11:14 AM CDT (10/8) 9:37 PM CDT (10/8)
Length of Visible Light 12h 22m
Length of Day
11h 30m
Waxing Crescent, 16% of the Moon is Illuminated
Oct 8
Waxing Crescent
Oct 11
First Quarter
Oct 18
Full
Oct 26
Last Quarter
Nov 3
New

Hourly Weather History & Observations

Time (CDT) Temp. Dew Point Humidity Pressure Visibility Wind Dir Wind Speed Gust Speed Precip Events Conditions
12:52 AM 48.9 °F 46.9 °F 93% 30.12 in 10.0 mi Calm Calm - N/A   Clear
1:52 AM 48.0 °F 46.0 °F 93% 30.12 in 10.0 mi Calm Calm - N/A   Clear
2:52 AM 48.0 °F 46.0 °F 93% 30.12 in 10.0 mi Calm Calm - N/A   Clear
3:52 AM 46.9 °F 45.0 °F 93% 30.12 in 10.0 mi Calm Calm - N/A   Clear
4:52 AM 46.9 °F 44.1 °F 90% 30.11 in 10.0 mi Calm Calm - N/A   Clear
5:52 AM 46.9 °F 44.1 °F 90% 30.12 in 10.0 mi Calm Calm - N/A   Clear
6:52 AM 46.0 °F 43.0 °F 89% 30.12 in 10.0 mi Calm Calm - N/A   Clear
7:52 AM 46.0 °F 44.1 °F 93% 30.13 in 10.0 mi Calm Calm - N/A   Clear
8:52 AM 54.0 °F 51.1 °F 90% 30.14 in 10.0 mi SSE 6.9 mph - N/A   Clear
9:52 AM 60.1 °F 51.1 °F 72% 30.14 in 10.0 mi South 9.2 mph - N/A   Clear
10:52 AM 66.0 °F 48.9 °F 54% 30.14 in 10.0 mi South 12.7 mph 19.6 mph N/A   Clear
11:52 AM 69.1 °F 46.9 °F 45% 30.13 in 10.0 mi South 13.8 mph 20.7 mph N/A   Clear
12:52 PM 72.0 °F 46.9 °F 41% 30.11 in 10.0 mi South 11.5 mph 17.3 mph N/A   Clear
1:52 PM 73.0 °F 46.0 °F 38% 30.09 in 10.0 mi South 11.5 mph 19.6 mph N/A   Clear
2:52 PM 73.0 °F 45.0 °F 37% 30.06 in 10.0 mi South 11.5 mph - N/A   Clear
3:52 PM 75.0 °F 48.0 °F 38% 30.04 in 10.0 mi South 12.7 mph 16.1 mph N/A   Clear
5:52 PM 72.0 °F 46.9 °F 41% 30.03 in 10.0 mi South 9.2 mph - N/A   Clear
6:52 PM 66.0 °F 48.0 °F 52% 30.03 in 10.0 mi SE 8.1 mph - N/A   Clear
7:52 PM 61.0 °F 48.0 °F 62% 30.04 in 10.0 mi SE 5.8 mph - N/A   Clear
8:52 PM 57.9 °F 48.9 °F 72% 30.04 in 10.0 mi SE 4.6 mph - N/A   Clear
9:52 PM 57.0 °F 48.0 °F 72% 30.04 in 10.0 mi SSE 4.6 mph - N/A   Clear
10:52 PM 55.0 °F 46.9 °F 74% 30.04 in 10.0 mi SE 5.8 mph - N/A   Clear
11:52 PM 55.0 °F 46.9 °F 74% 30.04 in 10.0 mi Calm Calm - N/A   Clear